{"data":{"norad_id":50200,"intl_designator":"2021-125AW","name":"STARLINK-3235","alt_names":[],"object_type":"PAYLOAD","status":"ACTIVE","operator":null,"country":"US","launch_date":"2021-12-18","launch_site_code":"AFWTR","launch_vehicle":null,"mission":null,"orbit_class":"UNKNOWN","rcs_meters":null,"size_class":null,"mass_kg":null,"dimensions":null,"purposes":["comms"],"wikipedia_slug":null,"has_3d_model":false,"image_url":null,"decayed_at":null,"tle_current":{"epoch":"2026-05-24T18:59:36.916800Z","epoch_age_seconds":87075,"freshness":"FRESH","line1":"1 50200U 21125AW  26144.79139950  .00000212  00000+0  31376-4 0  9996","line2":"2 50200  53.2155 257.4474 0001251  84.9864 275.1271 15.08839931248232","mean_motion":15.08839931,"eccentricity":0.0001251,"inclination_deg":53.2155,"raan_deg":257.4474,"arg_perigee_deg":84.9864,"mean_anomaly_deg":275.1271,"bstar":3.1376e-5,"rev_number":24823,"period_min":95.437559042173,"perigee_km":538.87817300646,"apogee_km":540.60902673255,"semimajor_km":6917.8805998695,"source":"CELESTRAK","updated_at":"2026-05-25T13:38:16.872680Z"}}}